Location: Gull Harbor
(47.1000°N, 122.9000°W)
Time: 14:58:01
(UTC-07:00)

Tiangong - Pass Details

Date: 21 April 2024
Orbit: 372 x 376 km, 41.5° (Epoch: 18 May)

Event Time Altitude Azimuth Distance (km) Brightness Sun altitude
Rises 22:03:30 0° 259° (W) 2,253 2.3 -17.4°
Reaches altitude 10° 22:05:46 10° 247° (WSW) 1,395 1.0 -17.7°
Enters shadow 22:07:44 24° 212° (SSW) 835 -0.6 -18.0°
